sat.trackr.live / text

‹ back to catalog

STARLINK-34742

NORAD 64942 · 2025-158L

PAYLOAD ACTIVE UNKNOWN

§ Identity

Operator
Country
US
Launch date
2025-07-27
Launch site
AFWTR
Launch vehicle
Mass (kg)
RCS (m²)

Purposes: comms

External: N2YO · Heavens-Above · Gunter

§ Orbital elements

Epoch: 2026-09-20T22:00:03.000096Z

Period
93.91 min
Inclination
97.2851°
Eccentricity
0.0001679
Mean motion
15.33403878 rev/d
Perigee alt
464.5 km
Apogee alt
466.8 km
Semi-major
6,843.8 km
B*
1.6930e-3
RAAN
122.1879°
Arg perigee
88.7601°
Mean anomaly
86.3712°
Rev number
579

§ Raw data

STARLINK-347421 64942U 25158L   26263.91670139  .00054911  00000+0  16930-2 0  99912 64942  97.2851 122.1879 0001679  88.7601  86.3712 15.33403878  5792

JSON: /api/v1/satellites/64942 · /tle

For live sub-satellite position, see the globe view (requires WebGL).

§ Visibility from observer

Set your observer location to see the next 7 days of passes ≥ 10°. The values pass through the URL so the page stays shareable.

No JS? Fill the form by hand. The geolocation button needs JavaScript.